TimePST,TemperatureF,Dew PointF,Humidity,Sea Level PressureIn,VisibilityMPH,Wind Direction,Wind SpeedMPH,Gust SpeedMPH,PrecipitationIn,Events,Conditions,WindDirDegrees,DateUTC
12:15 AM,48.2,44.6,87,29.27,10.0,SSE,13.8,27.6,0.02,,Mostly Cloudy,150,2012-12-02 08:15:00
12:35 AM,50.0,42.8,76,29.24,10.0,SE,16.1,28.8,0.05,,Overcast,130,2012-12-02 08:35:00
12:55 AM,48.2,42.8,82,29.25,10.0,SSE,12.7,21.9,0.07,,Mostly Cloudy,160,2012-12-02 08:55:00
1:15 AM,48.2,42.8,82,29.23,10.0,SSE,11.5,18.4,0.04,,Overcast,150,2012-12-02 09:15:00
1:35 AM,48.2,42.8,82,29.24,10.0,SE,11.5,20.7,0.05,,Overcast,140,2012-12-02 09:35:00
1:55 AM,48.2,42.8,82,29.24,10.0,SSE,6.9,-,0.05,,Overcast,150,2012-12-02 09:55:00
2:15 AM,48.2,42.8,82,29.25,10.0,SSE,6.9,-,0.01,,Overcast,150,2012-12-02 10:15:00
2:35 AM,48.2,42.8,82,29.26,10.0,SSE,10.4,16.1,0.01,,Mostly Cloudy,160,2012-12-02 10:35:00
2:55 AM,48.2,42.8,82,29.27,10.0,SSE,4.6,-,0.02,,Mostly Cloudy,160,2012-12-02 10:55:00
3:15 AM,48.2,44.6,87,29.25,10.0,SSE,10.4,-,0.01,,Overcast,150,2012-12-02 11:15:00
3:35 AM,48.2,44.6,87,29.23,10.0,SE,10.4,18.4,0.01,,Overcast,140,2012-12-02 11:35:00
3:55 AM,48.2,42.8,82,29.24,10.0,SSE,9.2,-,0.01,,Overcast,150,2012-12-02 11:55:00
4:15 AM,48.2,42.8,82,29.24,10.0,SSE,11.5,17.3,N/A,,Overcast,150,2012-12-02 12:15:00
4:35 AM,48.2,42.8,82,29.25,10.0,South,10.4,18.4,N/A,,Overcast,170,2012-12-02 12:35:00
4:55 AM,46.4,39.2,76,29.30,8.0,West,3.5,18.4,0.14,,Overcast,280,2012-12-02 12:55:00
5:15 AM,46.4,41.0,81,29.32,8.0,East,3.5,-,0.02,,Overcast,100,2012-12-02 13:15:00
5:35 AM,44.6,42.8,93,29.34,10.0,East,3.5,-,0.02,,Mostly Cloudy,100,2012-12-02 13:35:00
5:55 AM,46.4,42.8,87,29.35,10.0,Calm,Calm,-,0.03,,Overcast,0,2012-12-02 13:55:00
6:15 AM,46.4,42.8,87,29.36,10.0,Calm,Calm,-,N/A,,Overcast,0,2012-12-02 14:15:00
6:35 AM,46.4,41.0,81,29.38,10.0,SE,4.6,-,N/A,,Mostly Cloudy,140,2012-12-02 14:35:00
6:55 AM,44.6,41.0,87,29.40,10.0,SSE,5.8,-,N/A,,Mostly Cloudy,160,2012-12-02 14:55:00
7:15 AM,44.6,39.2,81,29.42,10.0,SE,4.6,-,N/A,,Scattered Clouds,140,2012-12-02 15:15:00
7:35 AM,44.6,41.0,87,29.44,10.0,SE,5.8,-,N/A,,Mostly Cloudy,140,2012-12-02 15:35:00
7:55 AM,46.4,41.0,81,29.46,10.0,SSE,6.9,-,N/A,,Overcast,150,2012-12-02 15:55:00
8:15 AM,46.4,41.0,81,29.47,10.0,SE,5.8,-,N/A,,Overcast,140,2012-12-02 16:15:00
8:35 AM,46.4,41.0,81,29.48,10.0,SSE,5.8,-,N/A,,Overcast,150,2012-12-02 16:35:00
8:55 AM,46.4,41.0,81,29.49,10.0,SE,5.8,-,N/A,,Overcast,140,2012-12-02 16:55:00
9:15 AM,46.4,42.8,87,29.50,10.0,SSE,4.6,-,N/A,,Overcast,160,2012-12-02 17:15:00
9:35 AM,46.4,41.0,81,29.52,10.0,SSE,8.1,-,N/A,,Overcast,150,2012-12-02 17:35:00
9:55 AM,48.2,42.8,82,29.53,10.0,SSE,12.7,-,N/A,,Mostly Cloudy,150,2012-12-02 17:55:00
10:15 AM,48.2,42.8,82,29.54,10.0,SSE,10.4,16.1,N/A,,Mostly Cloudy,150,2012-12-02 18:15:00
10:35 AM,48.2,39.2,71,29.55,10.0,SSE,12.7,20.7,N/A,,Mostly Cloudy,160,2012-12-02 18:35:00
10:55 AM,48.2,39.2,71,29.56,10.0,SSE,17.3,24.2,N/A,,Mostly Cloudy,150,2012-12-02 18:55:00
11:15 AM,50.0,41.0,71,29.56,10.0,SSE,12.7,19.6,N/A,,Overcast,150,2012-12-02 19:15:00
11:35 AM,50.0,41.0,71,29.57,10.0,SSE,15.0,20.7,N/A,,Overcast,150,2012-12-02 19:35:00
11:55 AM,50.0,41.0,71,29.57,10.0,SSE,19.6,26.5,N/A,,Overcast,160,2012-12-02 19:55:00
12:15 PM,51.8,42.8,71,29.58,10.0,SSE,13.8,27.6,N/A,,Overcast,150,2012-12-02 20:15:00
12:35 PM,48.2,42.8,82,29.60,9.0,SSE,13.8,23.0,0.01,,Overcast,160,2012-12-02 20:35:00
1:15 PM,48.2,42.8,82,29.62,10.0,SSE,12.7,-,0.01,,Overcast,150,2012-12-02 21:15:00
1:35 PM,48.2,42.8,82,29.64,10.0,SSE,11.5,17.3,0.02,,Overcast,160,2012-12-02 21:35:00
1:55 PM,48.2,42.8,82,29.64,10.0,SSE,12.7,20.7,0.03,,Overcast,150,2012-12-02 21:55:00
2:15 PM,48.2,44.6,87,29.65,10.0,SSE,16.1,20.7,0.01,,Overcast,150,2012-12-02 22:15:00
2:35 PM,48.2,42.8,82,29.66,10.0,SSE,15.0,18.4,0.01,,Overcast,150,2012-12-02 22:35:00
2:55 PM,48.2,42.8,82,29.67,10.0,SSE,11.5,18.4,0.01,,Overcast,160,2012-12-02 22:55:00
3:15 PM,48.2,42.8,82,29.68,10.0,SSE,13.8,-,N/A,,Overcast,150,2012-12-02 23:15:00
3:35 PM,48.2,42.8,82,29.69,10.0,SSE,12.7,17.3,N/A,,Overcast,160,2012-12-02 23:35:00
3:55 PM,48.2,42.8,82,29.71,10.0,SSE,9.2,-,N/A,,Overcast,150,2012-12-02 23:55:00
4:15 PM,48.2,42.8,82,29.71,10.0,SSE,11.5,-,N/A,,Overcast,150,2012-12-03 00:15:00
4:35 PM,48.2,42.8,82,29.73,10.0,SSE,12.7,16.1,N/A,,Overcast,150,2012-12-03 00:35:00
4:55 PM,48.2,42.8,82,29.74,10.0,SSE,10.4,20.7,N/A,,Mostly Cloudy,160,2012-12-03 00:55:00
5:15 PM,48.2,44.6,87,29.75,10.0,SSE,11.5,18.4,N/A,,Mostly Cloudy,160,2012-12-03 01:15:00
5:55 PM,48.2,44.6,87,29.77,10.0,SSE,10.4,18.4,0.01,,Mostly Cloudy,150,2012-12-03 01:55:00
6:15 PM,48.2,44.6,87,29.77,10.0,SSE,13.8,-,N/A,,Overcast,150,2012-12-03 02:15:00
6:35 PM,48.2,44.6,87,29.78,10.0,SSE,8.1,-,N/A,,Overcast,160,2012-12-03 02:35:00
6:55 PM,48.2,44.6,87,29.78,10.0,SSE,17.3,-,N/A,,Overcast,150,2012-12-03 02:55:00
7:15 PM,48.2,44.6,87,29.79,10.0,SSE,8.1,18.4,N/A,,Overcast,160,2012-12-03 03:15:00
7:35 PM,48.2,44.6,87,29.80,10.0,South,6.9,-,N/A,,Overcast,170,2012-12-03 03:35:00
7:55 PM,48.2,42.8,82,29.80,10.0,SSE,13.8,17.3,N/A,,Overcast,160,2012-12-03 03:55:00
8:15 PM,48.2,44.6,87,29.80,10.0,SSE,10.4,17.3,N/A,,Overcast,160,2012-12-03 04:15:00
8:35 PM,48.2,42.8,82,29.81,10.0,SSE,13.8,18.4,N/A,,Overcast,160,2012-12-03 04:35:00
8:55 PM,48.2,42.8,82,29.83,10.0,SSE,11.5,18.4,N/A,,Overcast,160,2012-12-03 04:55:00
9:15 PM,48.2,42.8,82,29.83,10.0,SSE,12.7,20.7,N/A,,Overcast,160,2012-12-03 05:15:00
9:35 PM,48.2,44.6,87,29.85,10.0,SSE,13.8,18.4,N/A,,Overcast,150,2012-12-03 05:35:00
9:55 PM,48.2,44.6,87,29.86,10.0,SSE,11.5,16.1,N/A,,Overcast,150,2012-12-03 05:55:00
10:15 PM,48.2,44.6,87,29.86,10.0,SSE,10.4,16.1,N/A,,Overcast,160,2012-12-03 06:15:00
10:55 PM,48.2,42.8,82,29.87,10.0,SSE,11.5,16.1,N/A,,Overcast,160,2012-12-03 06:55:00
11:15 PM,48.2,42.8,82,29.87,10.0,SSE,10.4,-,N/A,,Overcast,150,2012-12-03 07:15:00
11:35 PM,48.2,42.8,82,29.88,10.0,SSE,11.5,21.9,N/A,,Overcast,150,2012-12-03 07:35:00
11:55 PM,48.2,42.8,82,29.89,10.0,SSE,10.4,18.4,N/A,,Overcast,150,2012-12-03 07:55:00